DLH2YM EDDF-EDDW

Flight info

Callsign DLH2YM
Flight time 0h 41m
Altitude 22000
Route MARUN8M/25C MARUN Y153 WRB N850 NIE Z88 VERED VERE3P EDDW/09
Aircraft A20N/M-SDE2E3FGHIRWXY/L

Departure

Time 2026-05-06 14:14
Airport Frankfurt Main Airport (EDDF)

Arrival

Time 2026-05-06 14:56
Airport Bremen Airport (EDDW)
Time Latitude Longitude Altitude Speed Heading
2026-05-06 13:37 50.04431 8.56330 364 ft 0 kts 170°
2026-05-06 13:59 50.04435 8.56329 364 ft 2 kts 170°
2026-05-06 14:00 50.04450 8.56325 365 ft 2 kts 170°
2026-05-06 14:00 50.04465 8.56322 365 ft 2 kts 184°
2026-05-06 14:00 50.04480 8.56326 365 ft 2 kts 198°
2026-05-06 14:00 50.04494 8.56335 366 ft 2 kts 215°
2026-05-06 14:01 50.04505 8.56351 366 ft 2 kts 231°
2026-05-06 14:01 50.04513 8.56370 366 ft 1 kts 246°
2026-05-06 14:01 50.04516 8.56379 366 ft 1 kts 251°
2026-05-06 14:01 50.04516 8.56382 366 ft 0 kts 250°
2026-05-06 14:04 50.04514 8.56373 366 ft 2 kts 250°
2026-05-06 14:04 50.04511 8.56359 366 ft 4 kts 250°
2026-05-06 14:05 50.04496 8.56293 365 ft 7 kts 250°
2026-05-06 14:05 50.04476 8.56210 365 ft 8 kts 248°
2026-05-06 14:05 50.04451 8.56112 364 ft 10 kts 249°
2026-05-06 14:05 50.04423 8.56012 364 ft 3 kts 218°
2026-05-06 14:06 50.04390 8.56027 363 ft 6 kts 160°
2026-05-06 14:06 50.04339 8.56056 362 ft 9 kts 161°
2026-05-06 14:06 50.04291 8.56111 361 ft 8 kts 110°
2026-05-06 14:06 50.04290 8.56184 361 ft 5 kts 103°
2026-05-06 14:07 50.04254 8.56230 361 ft 8 kts 157°
2026-05-06 14:07 50.04194 8.56266 359 ft 10 kts 159°
2026-05-06 14:07 50.04147 8.56311 358 ft 7 kts 115°
2026-05-06 14:07 50.04156 8.56397 358 ft 8 kts 70°
2026-05-06 14:08 50.04176 8.56484 359 ft 8 kts 70°
2026-05-06 14:08 50.04198 8.56575 360 ft 9 kts 70°
2026-05-06 14:08 50.04220 8.56668 361 ft 9 kts 70°
2026-05-06 14:08 50.04242 8.56759 364 ft 8 kts 70°
2026-05-06 14:09 50.04262 8.56842 366 ft 7 kts 70°
2026-05-06 14:09 50.04288 8.56952 368 ft 15 kts 70°
2026-05-06 14:09 50.04328 8.57122 369 ft 17 kts 70°
2026-05-06 14:09 50.04372 8.57307 369 ft 18 kts 69°
2026-05-06 14:10 50.04418 8.57495 367 ft 19 kts 70°
2026-05-06 14:10 50.04465 8.57691 368 ft 18 kts 70°
2026-05-06 14:10 50.04506 8.57866 373 ft 16 kts 70°
2026-05-06 14:10 50.04543 8.58024 375 ft 14 kts 70°
2026-05-06 14:11 50.04580 8.58175 377 ft 14 kts 70°
2026-05-06 14:11 50.04615 8.58322 377 ft 14 kts 70°
2026-05-06 14:11 50.04651 8.58470 373 ft 12 kts 70°
2026-05-06 14:11 50.04648 8.58550 370 ft 10 kts 155°
2026-05-06 14:12 50.04569 8.58606 366 ft 14 kts 159°
2026-05-06 14:12 50.04487 8.58588 365 ft 9 kts 243°
2026-05-06 14:12 50.04480 8.58565 367 ft 0 kts 250°
2026-05-06 14:12 50.04481 8.58567 366 ft 0 kts 250°
2026-05-06 14:13 50.04481 8.58569 366 ft 0 kts 250°
2026-05-06 14:13 50.04440 8.58397 373 ft 51 kts 249°
2026-05-06 14:14 50.04224 8.57488 364 ft 123 kts 250°
2026-05-06 14:14 50.03860 8.55983 506 ft 163 kts 249°
2026-05-06 14:14 50.03473 8.54352 1171 ft 165 kts 251°
2026-05-06 14:14 50.03081 8.52735 2016 ft 159 kts 252°
2026-05-06 14:15 50.02687 8.51123 2559 ft 169 kts 248°
2026-05-06 14:15 50.01875 8.49705 2966 ft 191 kts 209°
2026-05-06 14:15 50.00553 8.49063 3435 ft 208 kts 198°
2026-05-06 14:15 49.99090 8.48435 3934 ft 226 kts 199°
2026-05-06 14:16 49.97578 8.47759 4683 ft 232 kts 199°
2026-05-06 14:16 49.96043 8.47061 5581 ft 232 kts 199°
2026-05-06 14:16 49.94464 8.46334 6273 ft 242 kts 199°
2026-05-06 14:16 49.92850 8.45508 7024 ft 248 kts 209°
2026-05-06 14:17 49.91586 8.43812 7859 ft 246 kts 239°
2026-05-06 14:17 49.91019 8.41322 8708 ft 249 kts 265°
2026-05-06 14:17 49.91243 8.38683 9510 ft 255 kts 289°
2026-05-06 14:17 49.92194 8.36351 10261 ft 264 kts 314°
2026-05-06 14:18 49.93771 8.34802 10789 ft 282 kts 334°
2026-05-06 14:18 49.95655 8.33592 11229 ft 300 kts 335°
2026-05-06 14:18 49.97662 8.32319 11629 ft 318 kts 335°
2026-05-06 14:18 49.99767 8.30963 11990 ft 336 kts 335°
2026-05-06 14:19 50.01973 8.29529 12318 ft 354 kts 336°
2026-05-06 14:19 50.04426 8.28580 12603 ft 375 kts 353°
2026-05-06 14:19 50.07066 8.28851 12887 ft 394 kts 11°
2026-05-06 14:19 50.09704 8.30133 13377 ft 404 kts 17°
2026-05-06 14:20 50.12361 8.31573 14035 ft 408 kts 18°
2026-05-06 14:20 50.15046 8.33029 14700 ft 411 kts 18°
2026-05-06 14:20 50.17746 8.34477 15308 ft 415 kts 17°
2026-05-06 14:20 50.20531 8.35958 15938 ft 420 kts 17°
2026-05-06 14:21 50.23285 8.37412 16518 ft 423 kts 17°
2026-05-06 14:21 50.26081 8.38886 17193 ft 427 kts 17°
2026-05-06 14:21 50.28893 8.40370 17741 ft 431 kts 17°
2026-05-06 14:21 50.31746 8.41898 18278 ft 435 kts 18°
2026-05-06 14:22 50.34588 8.43448 18817 ft 438 kts 18°
2026-05-06 14:22 50.37494 8.45043 19335 ft 442 kts 18°
2026-05-06 14:22 50.40443 8.46661 19843 ft 446 kts 18°
2026-05-06 14:22 50.43398 8.48280 20354 ft 449 kts 18°
2026-05-06 14:23 50.46350 8.49898 20846 ft 453 kts 17°
2026-05-06 14:23 50.49377 8.51434 21327 ft 456 kts 15°
2026-05-06 14:23 50.52457 8.52912 21713 ft 459 kts 15°
2026-05-06 14:23 50.55509 8.54361 21768 ft 459 kts 14°
2026-05-06 14:24 50.58577 8.55818 21772 ft 459 kts 15°
2026-05-06 14:24 50.61642 8.57283 21772 ft 459 kts 15°
2026-05-06 14:24 50.64743 8.58772 21769 ft 459 kts 15°
2026-05-06 14:24 50.67819 8.60252 21765 ft 460 kts 15°
2026-05-06 14:25 50.70893 8.61735 21772 ft 459 kts 15°
2026-05-06 14:25 50.73955 8.63215 21772 ft 460 kts 14°
2026-05-06 14:25 50.77036 8.64704 21775 ft 460 kts 14°
2026-05-06 14:25 50.80138 8.66207 21781 ft 460 kts 15°
2026-05-06 14:26 50.83195 8.67852 21773 ft 462 kts 19°
2026-05-06 14:26 50.86207 8.69688 21772 ft 463 kts 20°
2026-05-06 14:26 50.89231 8.71600 21769 ft 463 kts 20°
2026-05-06 14:26 50.92252 8.73527 21761 ft 463 kts 20°
2026-05-06 14:27 50.95254 8.75445 21765 ft 463 kts 20°
2026-05-06 14:27 50.98237 8.77349 21759 ft 463 kts 20°
2026-05-06 14:27 51.01265 8.79279 21757 ft 464 kts 20°
2026-05-06 14:27 51.04285 8.81204 21753 ft 463 kts 20°
2026-05-06 14:28 51.07262 8.83104 21748 ft 463 kts 20°
2026-05-06 14:28 51.10297 8.85043 21752 ft 463 kts 20°
2026-05-06 14:28 51.13345 8.86994 21757 ft 464 kts 20°
2026-05-06 14:28 51.16338 8.88911 21757 ft 463 kts 20°
2026-05-06 14:29 51.19368 8.90857 21752 ft 462 kts 20°
2026-05-06 14:29 51.22328 8.92760 21767 ft 462 kts 20°
2026-05-06 14:29 51.25325 8.94689 21770 ft 462 kts 20°
2026-05-06 14:29 51.28305 8.96608 21761 ft 461 kts 20°
2026-05-06 14:30 51.31330 8.98560 21766 ft 462 kts 20°
2026-05-06 14:30 51.34312 9.00487 21770 ft 461 kts 20°
2026-05-06 14:30 51.37324 9.02438 21772 ft 461 kts 20°
2026-05-06 14:30 51.40292 9.04365 21785 ft 459 kts 20°
2026-05-06 14:31 51.43229 9.06275 21786 ft 459 kts 20°
2026-05-06 14:31 51.46202 9.08211 21779 ft 458 kts 20°
2026-05-06 14:31 51.49208 9.09936 21773 ft 457 kts 15°
2026-05-06 14:31 51.52322 9.11266 21779 ft 455 kts 10°
2026-05-06 14:32 51.55434 9.12159 21772 ft 454 kts
2026-05-06 14:32 51.58566 9.12855 21779 ft 454 kts
2026-05-06 14:32 51.61736 9.13513 21778 ft 454 kts
2026-05-06 14:32 51.64890 9.14166 21785 ft 454 kts
2026-05-06 14:33 51.68019 9.14826 21787 ft 454 kts
2026-05-06 14:33 51.71167 9.15498 21772 ft 453 kts
2026-05-06 14:33 51.74301 9.16174 21782 ft 453 kts
2026-05-06 14:33 51.77458 9.16859 21774 ft 453 kts
2026-05-06 14:34 51.80594 9.17541 21770 ft 453 kts
2026-05-06 14:34 51.83731 9.18225 21642 ft 453 kts
2026-05-06 14:34 51.86885 9.18883 21146 ft 448 kts
2026-05-06 14:34 51.89951 9.18559 20632 ft 439 kts 343°
2026-05-06 14:35 51.92798 9.16777 20155 ft 434 kts 333°
2026-05-06 14:35 51.95563 9.14619 19660 ft 431 kts 331°
2026-05-06 14:35 51.98259 9.12494 19177 ft 430 kts 332°
2026-05-06 14:35 52.00997 9.10395 18683 ft 428 kts 332°
2026-05-06 14:36 52.03702 9.08378 18199 ft 426 kts 333°
2026-05-06 14:36 52.06385 9.06415 17728 ft 423 kts 333°
2026-05-06 14:36 52.09086 9.04456 17246 ft 421 kts 333°
2026-05-06 14:36 52.11792 9.02509 16768 ft 418 kts 334°
2026-05-06 14:37 52.14469 9.00589 16277 ft 414 kts 334°
2026-05-06 14:37 52.17120 8.98688 15800 ft 412 kts 334°
2026-05-06 14:37 52.19732 8.96811 15318 ft 410 kts 334°
2026-05-06 14:37 52.22364 8.94925 14836 ft 408 kts 334°
2026-05-06 14:38 52.24955 8.93063 14367 ft 406 kts 334°
2026-05-06 14:38 52.27541 8.91202 13842 ft 403 kts 334°
2026-05-06 14:38 52.30080 8.89376 13321 ft 399 kts 334°
2026-05-06 14:38 52.32644 8.87531 12785 ft 395 kts 334°
2026-05-06 14:39 52.35135 8.85732 12263 ft 390 kts 335°
2026-05-06 14:39 52.37622 8.83928 11742 ft 386 kts 335°
2026-05-06 14:39 52.40101 8.82144 11215 ft 382 kts 335°
2026-05-06 14:39 52.42507 8.80402 10854 ft 371 kts 336°
2026-05-06 14:40 52.44821 8.78716 10828 ft 352 kts 336°
2026-05-06 14:40 52.46980 8.77139 10820 ft 323 kts 337°
2026-05-06 14:40 52.48972 8.75694 10827 ft 303 kts 338°
2026-05-06 14:40 52.50903 8.74297 10822 ft 301 kts 339°
2026-05-06 14:41 52.52832 8.72897 10822 ft 301 kts 338°
2026-05-06 14:41 52.54773 8.71490 10824 ft 300 kts 337°
2026-05-06 14:41 52.56685 8.70104 10820 ft 300 kts 337°
2026-05-06 14:41 52.58595 8.68707 10823 ft 299 kts 338°
2026-05-06 14:42 52.60516 8.67301 10826 ft 300 kts 338°
2026-05-06 14:42 52.62436 8.65899 10819 ft 300 kts 338°
2026-05-06 14:42 52.64379 8.64475 10825 ft 302 kts 338°
2026-05-06 14:42 52.66310 8.63061 10809 ft 303 kts 338°
2026-05-06 14:43 52.68228 8.61655 10295 ft 306 kts 339°
2026-05-06 14:43 52.70167 8.60229 9720 ft 299 kts 338°
2026-05-06 14:43 52.72059 8.58839 9129 ft 289 kts 338°
2026-05-06 14:43 52.73856 8.57513 8544 ft 281 kts 339°
2026-05-06 14:44 52.75641 8.56200 7950 ft 274 kts 339°
2026-05-06 14:44 52.77365 8.54932 7365 ft 269 kts 339°
2026-05-06 14:44 52.79057 8.53685 6780 ft 265 kts 339°
2026-05-06 14:45 52.82400 8.51220 5590 ft 260 kts 339°
2026-05-06 14:45 52.84050 8.49997 4996 ft 258 kts 340°
2026-05-06 14:45 52.85703 8.48773 4392 ft 255 kts 340°
2026-05-06 14:45 52.87309 8.47580 3802 ft 253 kts 341°
2026-05-06 14:46 52.88909 8.46381 3295 ft 246 kts 341°
2026-05-06 14:46 52.90422 8.45221 3018 ft 234 kts 341°
2026-05-06 14:46 52.91857 8.44092 2967 ft 219 kts 341°
2026-05-06 14:46 52.93248 8.42982 2970 ft 218 kts 341°
2026-05-06 14:47 52.94623 8.41882 2970 ft 218 kts 341°
2026-05-06 14:47 52.95995 8.40783 2964 ft 213 kts 341°
2026-05-06 14:47 52.97298 8.39723 2956 ft 199 kts 341°
2026-05-06 14:47 52.98504 8.38710 2961 ft 188 kts 341°
2026-05-06 14:48 52.99635 8.37732 3038 ft 179 kts 341°
2026-05-06 14:48 53.00738 8.36775 2995 ft 177 kts 341°
2026-05-06 14:48 53.01832 8.35817 2989 ft 176 kts 342°
2026-05-06 14:48 53.02935 8.34858 2983 ft 175 kts 341°
2026-05-06 14:49 53.04088 8.34443 2954 ft 162 kts 16°
2026-05-06 14:49 53.04975 8.35416 2952 ft 155 kts 58°
2026-05-06 14:49 53.05119 8.37221 2976 ft 168 kts 98°
2026-05-06 14:49 53.04507 8.38981 2986 ft 174 kts 112°
2026-05-06 14:50 53.04073 8.40818 2974 ft 167 kts 96°
2026-05-06 14:50 53.03914 8.42728 2967 ft 164 kts 88°
2026-05-06 14:50 53.03912 8.44642 2958 ft 159 kts 82°
2026-05-06 14:50 53.03970 8.46370 2932 ft 143 kts 81°
2026-05-06 14:51 53.04027 8.48024 2969 ft 142 kts 81°
2026-05-06 14:51 53.04073 8.49614 2944 ft 133 kts 81°
2026-05-06 14:51 53.04111 8.51168 2959 ft 132 kts 81°
2026-05-06 14:51 53.04145 8.52701 2946 ft 132 kts 82°
2026-05-06 14:52 53.04176 8.54231 2784 ft 131 kts 81°
2026-05-06 14:52 53.04204 8.55741 2605 ft 131 kts 81°
2026-05-06 14:52 53.04232 8.57261 2427 ft 129 kts 81°
2026-05-06 14:52 53.04259 8.58752 2251 ft 128 kts 80°
2026-05-06 14:53 53.04288 8.60261 2076 ft 128 kts 80°
2026-05-06 14:53 53.04317 8.61747 1899 ft 128 kts 80°
2026-05-06 14:53 53.04346 8.63234 1720 ft 128 kts 80°
2026-05-06 14:53 53.04374 8.64741 1542 ft 130 kts 81°
2026-05-06 14:54 53.04411 8.66272 1371 ft 130 kts 81°
2026-05-06 14:54 53.04448 8.67773 1209 ft 132 kts 82°
2026-05-06 14:54 53.04474 8.69313 1010 ft 133 kts 83°
2026-05-06 14:54 53.04510 8.70882 816 ft 134 kts 83°
2026-05-06 14:55 53.04537 8.72433 634 ft 136 kts 83°
2026-05-06 14:55 53.04587 8.74042 451 ft 137 kts 83°
2026-05-06 14:55 53.04615 8.75648 258 ft 138 kts 86°
2026-05-06 14:55 53.04652 8.77255 64 ft 140 kts 84°
2026-05-06 14:56 53.04689 8.78796 8 ft 118 kts 88°
2026-05-06 14:56 53.04711 8.79773 19 ft 45 kts 88°
2026-05-06 14:56 53.04720 8.80183 18 ft 32 kts 87°
2026-05-06 14:56 53.04746 8.80429 18 ft 16 kts 45°
2026-05-06 14:57 53.04835 8.80451 19 ft 11 kts 341°
2026-05-06 14:57 53.04887 8.80368 20 ft 10 kts 278°
2026-05-06 14:57 53.04884 8.80241 21 ft 11 kts 268°
2026-05-06 14:57 53.04882 8.80112 21 ft 11 kts 269°